Flag for Russia Weather for the Past 2 Weeks in Petropavlovsk-Kamchatsky, Russia

Now
19 °F

Clear.


Feels Like: 9 °F
Forecast: -4 / 16 °F
Wind: 8 mph from North

Location: Petropavlovsk-Kamchatskij

Current Time: Feb 9, 2016 at 6:23:34 PM

Latest Report: Feb 9, 2016 at 5:30 PM


Visibility: N/A

Pressure: 29.77 "Hg

Humidity: 29%

Dew point: -8 °F

Location of Petropavlovsk-KamchatskyLocation

Historic Weather in Petropavlovsk-Kamchatsky — Graph

°F

Petropavlovsk-Kamchatsky Temperature Yesterday

Maximum temperature yesterday: 16 °F (at 4:30 PM)
Minimum temperature yesterday: -6 °F (at 7:00 AM)
Average temperature yesterday: 4 °F

High & Low Weather Summary for the Past Weeks

 TemperatureHumidityPressure
High23 °F (Feb 9, 3:00 PM)86% (Jan 26, 4:00 PM)29.80 "Hg (Jan 26, 4:00 PM)
Low-9 °F (Feb 6, 9:00 AM)17% (Feb 6, 3:00 PM)29.15 "Hg (Jan 26, 3:00 AM)
Average7 °F54%29.51 "Hg
* Reported Jan 25 5:00 PM — Feb 9 5:30 PM, Petropavlovsk-Kamchatsky, Weather by CustomWeather, © 2016

Note: Actual official high and low records may vary slightly from our data, if they occured in-between our weather recording intervals... More about our weather records

Advertising

Petropavlovsk-Kamchatsky Weather History for the Previous 24 Hours

 ConditionsComfort  
Time TempWeatherWind HumidityBarometerVisibility
5:30 PM
Tue, Feb 9
19 °FClear.8 mph29%29.77 "HgN/A
5:00 PM21 °FClear.10 mph27%29.77 "HgN/A
4:30 PM19 °FClear.6 mph35%29.74 "HgN/A
3:30 PM23 °FClear.1 mph30%29.74 "HgN/A
3:00 PM23 °FClear.8 mph30%29.74 "HgN/A
2:30 PM21 °FClear.10 mph32%29.71 "HgN/A
2:00 PM21 °FClear.8 mph32%29.71 "HgN/A
1:30 PM18 °FClear.1 mph38%29.71 "HgN/A
1:00 PM18 °FClear.No wind35%29.71 "HgN/A
12:30 PM14 °FClear.1 mph44%29.71 "HgN/A
12:00 PM10 °FClear.3 mph47%29.71 "HgN/A
11:30 AM7 °FClear.3 mph51%29.71 "HgN/A
11:00 AM7 °FClear.3 mph51%29.71 "HgN/A
10:30 AM5 °FClear.1 mph51%29.68 "HgN/A
10:00 AM5 °FClear.No wind51%29.68 "HgN/A
9:30 AM1 °FClear.8 mph60%29.68 "HgN/A
9:00 AM1 °FClear.8 mph60%29.65 "HgN/A
8:30 AM0 °FClear.6 mph60%29.65 "HgN/A
8:00 AM1 °FClear.8 mph60%29.65 "HgN/A
7:30 AM5 °FClear.8 mph51%29.62 "HgN/A
7:00 AM7 °FClear.8 mph51%29.62 "HgN/A
6:00 AM3 °FClear.8 mph55%29.59 "HgN/A
5:00 AM7 °FClear.10 mph51%29.56 "HgN/A
4:00 AM3 °FClear.13 mph55%29.53 "HgN/A
3:00 AM1 °FClear.10 mph55%29.50 "HgN/A
2:00 AM0 °FClear.8 mph60%29.50 "HgN/A
1:30 AM1 °FClear.8 mph55%29.50 "HgN/A
1:00 AM1 °FClear.8 mph55%29.47 "HgN/A
12:30 AM1 °FClear.8 mph55%29.47 "HgN/A
12:00 AM3 °FClear.10 mph55%29.47 "HgN/A
11:30 PM
Mon, Feb 8
3 °FClear.10 mph55%29.45 "HgN/A
11:00 PM1 °FClear.8 mph60%29.45 "HgN/A
10:30 PM3 °FClear.8 mph55%29.45 "HgN/A
10:00 PM5 °FClear.8 mph55%29.45 "HgN/A
9:30 PM3 °FClear.6 mph60%29.42 "HgN/A
9:00 PM0 °FClear.3 mph65%29.42 "HgN/A
8:30 PM7 °FClear.6 mph51%29.42 "HgN/A
8:00 PM7 °FClear.3 mph56%29.39 "HgN/A
7:30 PM3 °FClear.1 mph60%29.39 "HgN/A
7:00 PM5 °FClear.1 mph60%29.39 "HgN/A
6:30 PM12 °FClear.3 mph48%29.36 "HgN/A
6:00 PM14 °FClear.1 mph48%29.36 "HgN/A
Weather by CustomWeather, © 2016

See weather overviewHow to use our weather pages